Stuart, FL

2:48 AM EST on February 21, 2018 (GMT -0500)
Witham

Weather History for KSUA - February, 2014

Change the Weather History Date:

Saturday, February 1, 2014

  Actual Average Record
Temperature  
Mean Temperature 75 °F -  
Max Temperature 84 °F 75 °F 84 °F (2014)
Min Temperature 66 °F 54 °F 50 °F (2017)
Cooling Degree Days 10    
Growing Degree Days 25 (Base 50)    
Moisture  
Dew Point 66 °F    
Average Humidity 83    
Maximum Humidity 94    
Minimum Humidity 45    
Precipitation  
Precipitation 0.00 in - - ()
Sea Level Pressure  
Sea Level Pressure 30.12 in    
Wind  
Wind Speed 2 mph (SSE)    
Max Wind Speed 13 mph    
Max Gust Speed 17 mph    
Visibility 5 miles    
Events Fog , Thunderstorm    
Averages and records for this station are not official NWS values.
T = Trace of Precipitation, MM = Missing Value Source: NWS Daily Summary

Daily Weather History Graph

Daily Weather History Graph

Search for Another Location

Airport or City:

Trip Planner

Search our weather history database for the weather conditions in past years. The results will help you decide how hot, cold, wet, or windy it might be!

Date:

Astronomy

Feb. 01, 2014 Rise Set
Actual Time 7:06 AM EST 6:02 PM EST
Civil Twilight 6:42 AM EST 6:26 PM EST
Nautical Twilight 6:14 AM EST 6:54 PM EST
Astronomical Twilight 5:46 AM EST 7:22 PM EST
Moon 8:10 AM EST (2/1) 8:17 PM EST (2/1)
Length of Visible Light 11h 44m
Length of Day
10h 55m
Waxing Crescent, 5% of the Moon is Illuminated
Feb 1
Waxing Crescent
Feb 6
First Quarter
Feb 14
Full
Feb 22
Last Quarter
Mar 1
New

Hourly Weather History & Observations

Time (EST) Temp. Heat Index Dew Point Humidity Pressure Visibility Wind Dir Wind Speed Gust Speed Precip Events Conditions
12:15 AM 71.6 °F - 68.0 °F 88% 30.09 in 3.0 mi Calm Calm - N/A   Mist
12:35 AM 71.6 °F - 68.0 °F 88% 30.09 in 2.5 mi South 3.5 mph - N/A   Scattered Clouds
12:55 AM 71.6 °F - 69.8 °F 94% 30.09 in 7.0 mi South 4.6 mph - N/A   Clear
1:15 AM 71.6 °F - 68.0 °F 88% 30.09 in 7.0 mi Calm Calm - N/A   Clear
1:35 AM 71.6 °F - 68.0 °F 88% 30.09 in 5.0 mi Calm Calm - N/A   Clear
1:55 AM 71.6 °F - 68.0 °F 88% 30.09 in 2.5 mi Calm Calm - N/A   Mist
2:15 AM 71.6 °F - 68.0 °F 88% 30.09 in 0.5 mi Calm Calm - N/A Fog , Thunderstorm Fog
2:35 AM 69.8 °F - 66.2 °F 88% 30.08 in 0.5 mi West 3.5 mph - N/A Fog Fog
2:55 AM 69.8 °F - 66.2 °F 88% 30.08 in 0.5 mi West 3.5 mph - N/A Fog Fog
3:15 AM 69.8 °F - 66.2 °F 88% 30.08 in 0.5 mi Calm Calm - N/A Fog Fog
3:35 AM 69.8 °F - 66.2 °F 88% 30.08 in 0.5 mi Calm Calm - N/A Fog Fog
3:55 AM 68.0 °F - 64.4 °F 88% 30.08 in 0.5 mi Calm Calm - N/A Fog Fog
4:15 AM 68.0 °F - 64.4 °F 88% 30.08 in 0.5 mi Calm Calm - N/A Fog Fog
4:35 AM 68.0 °F - 64.4 °F 88% 30.08 in 0.5 mi ESE 3.5 mph - N/A Fog Fog
4:55 AM 68.0 °F - 64.4 °F 88% 30.08 in 0.5 mi Calm Calm - N/A Fog Fog
5:15 AM 68.0 °F - 64.4 °F 88% 30.08 in 0.5 mi Calm Calm - N/A Fog Fog
5:35 AM 68.0 °F - 62.6 °F 83% 30.09 in 0.5 mi Calm Calm - N/A Fog Fog
5:55 AM 68.0 °F - 64.4 °F 88% 30.10 in 0.2 mi Calm Calm - N/A Fog Fog
6:15 AM 66.2 °F - 62.6 °F 88% 30.10 in 0.5 mi Calm Calm - N/A Fog Fog
6:47 AM 68.0 °F - 64.4 °F 88% 30.11 in 0.5 mi Calm Calm - N/A Fog Fog
7:17 AM 66.2 °F - 64.4 °F 94% 30.12 in 0.8 mi Calm Calm - N/A Fog Fog
7:27 AM 66.2 °F - 62.6 °F 88% 30.13 in 1.0 mi Calm Calm - N/A Fog Fog
7:47 AM 66.2 °F - 62.6 °F 88% 30.13 in 3.0 mi Calm Calm - N/A   Mostly Cloudy
7:52 AM 66.2 °F - 62.6 °F 88% 30.14 in 3.0 mi Calm Calm - N/A   Mostly Cloudy
8:47 AM 73.4 °F - 68.0 °F 83% 30.15 in 5.0 mi Calm Calm - N/A   Scattered Clouds
9:47 AM 75.2 °F - 71.6 °F 89% 30.16 in 5.0 mi South 6.9 mph - N/A   Mostly Cloudy
10:47 AM 77.0 °F - 68.0 °F 74% 30.16 in 6.0 mi SSE 10.4 mph - N/A   Haze
11:47 AM 82.4 °F 84.6 °F 66.2 °F 58% 30.15 in 7.0 mi SSE 10.4 mph - N/A   Mostly Cloudy
12:47 PM 82.4 °F 83.4 °F 62.6 °F 51% 30.12 in 7.0 mi SSE 12.7 mph - N/A   Mostly Cloudy
1:47 PM 84.2 °F 84.4 °F 60.8 °F 45% 30.10 in 10.0 mi South 9.2 mph 17.3 mph N/A   Scattered Clouds
2:47 PM 84.2 °F 86.6 °F 66.2 °F 55% 30.09 in 10.0 mi SE 12.7 mph - N/A   Mostly Cloudy
3:47 PM 82.4 °F 84.6 °F 66.2 °F 58% 30.08 in 10.0 mi ESE 11.5 mph - N/A   Scattered Clouds
4:47 PM 80.6 °F 83.2 °F 68.0 °F 65% 30.09 in 10.0 mi SE 11.5 mph - N/A   Scattered Clouds
5:47 PM 77.0 °F - 68.0 °F 74% 30.10 in 7.0 mi SE 11.5 mph - N/A   Partly Cloudy
6:47 PM 75.2 °F - 68.0 °F 78% 30.12 in 7.0 mi SE 11.5 mph - N/A   Partly Cloudy
8:15 PM 71.6 °F - 68.0 °F 88% 30.15 in 10.0 mi SSE 3.5 mph - N/A   Clear
8:35 PM 71.6 °F - 68.0 °F 88% 30.15 in 10.0 mi SSE 3.5 mph - N/A   Clear
8:55 PM 71.6 °F - 68.0 °F 88% 30.16 in 10.0 mi Calm Calm - N/A   Clear
9:15 PM 69.8 °F - 64.4 °F 83% 30.16 in 10.0 mi Calm Calm - N/A   Clear
9:35 PM 69.8 °F - 66.2 °F 88% 30.16 in 10.0 mi Calm Calm - N/A   Clear
9:55 PM 69.8 °F - 66.2 °F 88% 30.16 in 10.0 mi Calm Calm - N/A   Clear
10:15 PM 69.8 °F - 66.2 °F 88% 30.16 in 7.0 mi Calm Calm - N/A   Clear
10:35 PM 69.8 °F - 64.4 °F 83% 30.16 in 10.0 mi Calm Calm - N/A   Clear
10:55 PM 69.8 °F - 66.2 °F 88% 30.16 in 7.0 mi SSE 3.5 mph - N/A   Clear
11:15 PM 69.8 °F - 64.4 °F 83% 30.15 in 10.0 mi SSE 3.5 mph - N/A   Clear
11:35 PM 69.8 °F - 66.2 °F 88% 30.15 in 7.0 mi Calm Calm - N/A   Clear
11:55 PM 69.8 °F - 66.2 °F 88% 30.15 in 2.0 mi Calm Calm - N/A   Clear